WUK9CM EGGW-HESX

Flight info

Callsign WUK9CM
Flight time N/A
Altitude 33000
Route MATCH Q295 BRAIN P44 DAGGA M85 ITVIP L10 DVR UL9 KONAN DCT KOK DCT RITAX DCT KRH DCT KUNOD DCT GEDSO DCT VEKEN DCT MSR DCT PINDO/N0429F350 DCT PAXIS L607 NABSI P557 OBRAN L321 REXUM M872 FYM
Aircraft A21N/M-SDE2E3FGHIRWXY/LB1

Departure

Time 2026-05-04 12:23
Airport London Luton Airport (EGGW)

Arrival

Time N/A
Airport Sphinx International Airport (HESX)
Time Latitude Longitude Altitude Speed Heading
2026-05-04 11:33 51.88149 -0.37556 527 ft 0 kts 194°
2026-05-04 12:11 51.88153 -0.37554 527 ft 3 kts 195°
2026-05-04 12:11 51.88177 -0.37538 527 ft 4 kts 218°
2026-05-04 12:11 51.88189 -0.37512 527 ft 4 kts 281°
2026-05-04 12:12 51.88186 -0.37502 527 ft 0 kts 342°
2026-05-04 12:16 51.88187 -0.37502 527 ft 0 kts 342°
2026-05-04 12:16 51.88197 -0.37508 527 ft 3 kts 342°
2026-05-04 12:16 51.88214 -0.37545 527 ft 6 kts 265°
2026-05-04 12:16 51.88196 -0.37627 527 ft 9 kts 245°
2026-05-04 12:17 51.88155 -0.37730 527 ft 12 kts 238°
2026-05-04 12:17 51.88090 -0.37842 528 ft 15 kts 219°
2026-05-04 12:17 51.88005 -0.37955 528 ft 14 kts 216°
2026-05-04 12:17 51.87906 -0.38009 528 ft 17 kts 176°
2026-05-04 12:18 51.87803 -0.37909 528 ft 19 kts 121°
2026-05-04 12:18 51.87742 -0.37704 528 ft 21 kts 115°
2026-05-04 12:18 51.87680 -0.37512 527 ft 18 kts 130°
2026-05-04 12:18 51.87557 -0.37459 527 ft 20 kts 197°
2026-05-04 12:19 51.87527 -0.37480 527 ft 0 kts 207°
2026-05-04 12:19 51.87520 -0.37496 527 ft 3 kts 236°
2026-05-04 12:19 51.87504 -0.37545 527 ft 7 kts 248°
2026-05-04 12:19 51.87487 -0.37632 528 ft 10 kts 256°
2026-05-04 12:20 51.87468 -0.37752 528 ft 13 kts 254°
2026-05-04 12:20 51.87441 -0.37904 528 ft 15 kts 254°
2026-05-04 12:20 51.87404 -0.38024 528 ft 12 kts 224°
2026-05-04 12:20 51.87322 -0.38096 528 ft 15 kts 189°
2026-05-04 12:21 51.87234 -0.38181 529 ft 12 kts 243°
2026-05-04 12:21 51.87236 -0.38288 528 ft 7 kts 279°
2026-05-04 12:21 51.87204 -0.38285 528 ft 10 kts 89°
2026-05-04 12:21 51.87223 -0.38220 529 ft 6 kts 63°
2026-05-04 12:22 51.87232 -0.38179 529 ft 0 kts 74°
2026-05-04 12:22 51.87236 -0.38158 529 ft 16 kts 74°
2026-05-04 12:22 51.87373 -0.37373 528 ft 131 kts 74°
2026-05-04 12:22 51.87706 -0.35498 1081 ft 197 kts 72°
2026-05-04 12:23 51.88106 -0.33373 2381 ft 203 kts 72°
2026-05-04 12:23 51.88561 -0.31057 3127 ft 227 kts 72°
2026-05-04 12:23 51.89076 -0.28543 4060 ft 244 kts 71°
2026-05-04 12:23 51.89634 -0.25803 4604 ft 264 kts 75°
2026-05-04 12:24 51.89966 -0.22884 4827 ft 266 kts 90°
2026-05-04 12:24 51.89591 -0.19973 5097 ft 266 kts 114°
2026-05-04 12:24 51.88537 -0.17589 5538 ft 268 kts 138°
2026-05-04 12:24 51.86924 -0.16085 6040 ft 269 kts 163°
2026-05-04 12:25 51.85070 -0.15818 6574 ft 271 kts 187°
2026-05-04 12:25 51.83194 -0.16246 7114 ft 273 kts 181°
2026-05-04 12:25 51.81355 -0.15551 7669 ft 275 kts 158°
2026-05-04 12:25 51.79614 -0.14239 8256 ft 278 kts 155°
2026-05-04 12:26 51.77868 -0.12865 8828 ft 281 kts 153°
2026-05-04 12:26 51.76329 -0.10899 9396 ft 286 kts 131°
2026-05-04 12:26 51.75412 -0.08042 9971 ft 292 kts 105°
2026-05-04 12:26 51.75312 -0.04689 10499 ft 312 kts 84°
2026-05-04 12:27 51.75637 -0.01109 11009 ft 333 kts 82°
2026-05-04 12:27 51.75963 0.02179 11442 ft 342 kts 82°
2026-05-04 12:27 51.76319 0.05973 12019 ft 345 kts 82°
2026-05-04 12:27 51.76661 0.09846 12637 ft 348 kts 83°
2026-05-04 12:28 51.76961 0.13381 13209 ft 351 kts 83°
2026-05-04 12:28 51.77281 0.17258 13825 ft 355 kts 83°
2026-05-04 12:28 51.77606 0.21222 14402 ft 358 kts 83°
2026-05-04 12:28 51.77928 0.25160 14977 ft 360 kts 83°
2026-05-04 12:29 51.78254 0.29189 15574 ft 363 kts 83°
2026-05-04 12:29 51.78578 0.33195 16158 ft 365 kts 84°
2026-05-04 12:29 51.78906 0.37278 16788 ft 368 kts 84°
2026-05-04 12:29 51.79234 0.41394 17419 ft 371 kts 84°
2026-05-04 12:30 51.79565 0.45557 18068 ft 374 kts 84°
2026-05-04 12:30 51.79895 0.49725 18664 ft 377 kts 84°
2026-05-04 12:30 51.80227 0.53943 19238 ft 380 kts 84°
2026-05-04 12:30 51.80562 0.58215 19822 ft 384 kts 84°
2026-05-04 12:31 51.80898 0.62527 20410 ft 388 kts 84°
2026-05-04 12:31 51.81232 0.66881 21024 ft 392 kts 85°
2026-05-04 12:31 51.81219 0.71292 21641 ft 394 kts 100°
2026-05-04 12:31 51.80433 0.75472 22270 ft 394 kts 118°
2026-05-04 12:32 51.78875 0.79154 22940 ft 394 kts 136°
2026-05-04 12:32 51.74204 0.83536 24206 ft 393 kts 165°
2026-05-04 12:32 51.71571 0.84766 24810 ft 395 kts 167°
2026-05-04 12:33 51.68945 0.85971 25409 ft 398 kts 166°
2026-05-04 12:33 51.66276 0.87228 26019 ft 401 kts 166°
2026-05-04 12:33 51.63597 0.88511 26619 ft 403 kts 166°
2026-05-04 12:33 51.60901 0.89816 27218 ft 406 kts 166°
2026-05-04 12:34 51.58195 0.91128 27800 ft 408 kts 166°
2026-05-04 12:34 51.55469 0.92449 28368 ft 410 kts 166°
2026-05-04 12:34 51.52732 0.93775 28922 ft 412 kts 166°
2026-05-04 12:34 51.49976 0.95106 29453 ft 415 kts 166°
2026-05-04 12:35 51.47195 0.96450 29966 ft 417 kts 166°
2026-05-04 12:35 51.44414 0.97794 30407 ft 419 kts 166°
2026-05-04 12:35 51.41612 0.99146 30849 ft 421 kts 166°
2026-05-04 12:35 51.38818 1.00495 31404 ft 419 kts 166°
2026-05-04 12:36 51.36030 1.01839 31962 ft 417 kts 166°
2026-05-04 12:36 51.33257 1.03197 32519 ft 415 kts 164°
2026-05-04 12:36 51.30594 1.05023 32926 ft 419 kts 154°
2026-05-04 12:36 51.28237 1.07667 33035 ft 423 kts 142°
2026-05-04 12:37 51.26250 1.11177 33044 ft 429 kts 130°
2026-05-04 12:37 51.23008 1.19212 33026 ft 430 kts 127°
2026-05-04 12:38 51.19789 1.27250 33020 ft 429 kts 127°
2026-05-04 12:38 51.16825 1.35515 33016 ft 435 kts 115°
2026-05-04 12:38 51.16035 1.40203 33021 ft 443 kts 103°
2026-05-04 12:39 51.15738 1.45111 33026 ft 446 kts 98°
2026-05-04 12:39 51.15330 1.54958 33019 ft 446 kts 98°
2026-05-04 12:40 51.14867 1.64802 33020 ft 445 kts 99°
2026-05-04 12:40 51.14374 1.74639 33021 ft 446 kts 99°
2026-05-04 12:41 51.13877 1.84421 33021 ft 446 kts 99°
2026-05-04 12:41 51.13401 1.93678 33021 ft 446 kts 99°
2026-05-04 12:42 51.12879 2.03515 33020 ft 446 kts 99°
2026-05-04 12:42 51.12354 2.13361 33016 ft 446 kts 99°
2026-05-04 12:43 51.11820 2.23213 33015 ft 446 kts 100°
2026-05-04 12:43 51.11281 2.33042 33019 ft 446 kts 100°
2026-05-04 12:44 51.10732 2.42889 33014 ft 447 kts 100°
2026-05-04 12:44 51.10177 2.52674 33014 ft 447 kts 100°
2026-05-04 12:45 51.09570 2.62514 33016 ft 444 kts 104°
2026-05-04 12:45 51.08813 2.67206 33014 ft 435 kts 116°
2026-05-04 12:45 51.07586 2.71591 33022 ft 431 kts 121°
2026-05-04 12:46 51.04947 2.80138 33014 ft 431 kts 122°
2026-05-04 12:46 51.02318 2.88707 33020 ft 431 kts 122°
2026-05-04 12:47 50.99716 2.97218 33015 ft 431 kts 122°
2026-05-04 12:47 50.97092 3.05775 33000 ft 431 kts 122°
2026-05-04 12:48 50.94463 3.14319 32987 ft 431 kts 122°
2026-05-04 12:48 50.91829 3.22849 32979 ft 431 kts 122°
2026-05-04 12:49 50.89183 3.31383 32976 ft 431 kts 122°
2026-05-04 12:49 50.86535 3.39902 32973 ft 431 kts 122°
2026-05-04 12:50 50.83877 3.48419 32982 ft 432 kts 122°
2026-05-04 12:50 50.81214 3.56925 32981 ft 432 kts 122°
2026-05-04 12:51 50.78533 3.65450 32981 ft 432 kts 122°
2026-05-04 12:51 50.75871 3.73895 32978 ft 432 kts 122°
2026-05-04 12:52 50.73187 3.82379 32978 ft 432 kts 122°
2026-05-04 12:52 50.70491 3.90881 32976 ft 433 kts 122°
2026-05-04 12:53 50.67785 3.99372 32972 ft 433 kts 122°
2026-05-04 12:53 50.65075 4.07843 32977 ft 433 kts 123°
2026-05-04 12:54 50.62814 4.14896 32985 ft 433 kts 123°
2026-05-04 12:54 50.60088 4.23368 32987 ft 433 kts 123°
2026-05-04 12:55 50.57356 4.31822 32991 ft 434 kts 123°
2026-05-04 12:55 50.54616 4.40288 32991 ft 434 kts 123°
2026-05-04 12:56 50.51872 4.48734 32994 ft 434 kts 123°
2026-05-04 12:56 50.49121 4.57176 32992 ft 434 kts 123°
2026-05-04 12:57 50.46362 4.65606 32986 ft 434 kts 123°
2026-05-04 12:57 50.43595 4.74028 32985 ft 435 kts 123°
2026-05-04 12:58 50.40841 4.82396 32984 ft 435 kts 123°
2026-05-04 12:58 50.38059 4.90819 32979 ft 435 kts 123°
2026-05-04 12:59 50.35265 4.99239 32974 ft 436 kts 123°
2026-05-04 12:59 50.32463 5.07669 32976 ft 436 kts 123°
2026-05-04 13:00 50.29652 5.16079 32976 ft 436 kts 123°
2026-05-04 13:00 50.26838 5.24486 32981 ft 436 kts 123°
2026-05-04 13:01 50.24010 5.32902 32980 ft 437 kts 123°
2026-05-04 13:01 50.21175 5.41304 32992 ft 437 kts 123°
2026-05-04 13:02 50.18338 5.49691 32989 ft 437 kts 124°
2026-05-04 13:02 50.15491 5.58077 32990 ft 438 kts 124°
2026-05-04 13:03 50.12632 5.66475 32986 ft 438 kts 124°
2026-05-04 13:03 50.09775 5.74840 32999 ft 438 kts 124°
2026-05-04 13:04 50.06880 5.83100 32990 ft 436 kts 126°
2026-05-04 13:04 50.03847 5.91269 32991 ft 436 kts 126°
2026-05-04 13:05 50.00807 5.99420 32996 ft 436 kts 126°
2026-05-04 13:05 49.98056 6.06777 32999 ft 436 kts 126°
2026-05-04 13:06 49.95005 6.14933 32996 ft 436 kts 126°
2026-05-04 13:06 49.91945 6.23080 32994 ft 436 kts 126°
2026-05-04 13:07 49.88883 6.31204 32996 ft 437 kts 126°
2026-05-04 13:07 49.85802 6.39351 32993 ft 437 kts 126°
2026-05-04 13:08 49.82738 6.47433 32994 ft 438 kts 126°
2026-05-04 13:08 49.79645 6.55556 32994 ft 438 kts 126°
2026-05-04 13:09 49.76547 6.63677 32989 ft 438 kts 126°
2026-05-04 13:09 49.73439 6.71800 32988 ft 439 kts 126°
2026-05-04 13:10 49.70322 6.79916 32984 ft 439 kts 126°
2026-05-04 13:10 49.67192 6.88041 32980 ft 440 kts 126°
2026-05-04 13:11 49.64053 6.96165 32984 ft 441 kts 126°
2026-05-04 13:11 49.60926 7.04232 32988 ft 441 kts 126°
2026-05-04 13:12 49.57772 7.12340 32991 ft 441 kts 126°
2026-05-04 13:12 49.54605 7.20457 32999 ft 441 kts 126°
2026-05-04 13:13 49.51440 7.28553 32999 ft 441 kts 126°
2026-05-04 13:13 49.48267 7.36637 32999 ft 441 kts 126°
2026-05-04 13:14 49.45089 7.44714 32997 ft 442 kts 127°
2026-05-04 13:14 49.41900 7.52780 32995 ft 442 kts 127°
2026-05-04 13:15 49.38708 7.60853 32998 ft 442 kts 127°
2026-05-04 13:15 49.35503 7.68917 32999 ft 442 kts 127°